Simultaneous Nadir Overpasses (SNOs) Predictions

Prediction of SNOs between GOES-15 and METOP-B Satellite Orbit:

Table of predicted SNOs for the next 14.0 days since TLE Epoch: 4/6/2024
Index Date Time (GOES-15) GOES-15 Lat,Lon METOP-B Lat,Lon Distance(km) Time Diff (sec)
1 04/06/2024 17:33:16 0.09, 61.20 -0.62, 58.15 348.31 80
2 04/07/2024 17:09:56 0.08, 61.20 0.50, 63.13 219.93 80
3 04/09/2024 05:28:48 -0.09, 61.25 0.52, 58.56 306.13 80
4 04/10/2024 05:10:48 -0.09, 61.25 -0.61, 63.55 261.98 80
5 04/11/2024 17:29:49 0.10, 61.23 -0.38, 58.94 260.11 80
6 04/12/2024 17:06:28 0.10, 61.24 0.69, 63.94 307.37 80
7 04/14/2024 05:25:19 -0.11, 61.29 0.33, 59.36 220.01 80
8 04/15/2024 05:07:20 -0.11, 61.30 -0.81, 64.35 347.52 80
9 04/16/2024 17:26:19 0.12, 61.28 -0.23, 59.75 174.80 80
10 04/17/2024 17:03:00 0.12, 61.29 0.90, 64.73 392.58 80
11 04/19/2024 05:21:50 -0.12, 61.35 0.16, 60.17 134.99 80
